Showing default

KINEIS-2D, 62930

Orbit data source: Space-Track

KINEIS-2D, 62930 is a French payload satellite in SSO that was launched on Sat, 08 Feb 2025 UTC via an ELECTRON launch vehicle from the Rocket Lab Launch Complex (RLLC). Payload-class satellites include a variety of spacecraft equipped with specific instruments for various scientific and technological missions. These include communications satellites like Starlink; space stations such as the ISS; scientific satellites like the Hubble; Earth observation satellites from companies like Planet Labs, Umbra, and HawkEye 360; GPS; miniature CubeSats for education and research; and military/defense satellites.

Loading next visibility...
Identifier
62930, 2025-028C
Orbit
SSO
Country
Flag of FRFR
Related business
Manufacturer
KINEIS
Mission
Operational Commercial Communications
Bus & Motor
CUBESAT 16U, Unknown motor
Mass
28 kg wet, 28 kg dry
Launch date (UTC)
2025-02-08 (8 months ago)
Launch vehicle
ELECTRON
Launch site
Rocket Lab Launch Complex (RLLC)
Object type
Payload
Rocket body
Debris
Shape & HBR
Box + 2 Pan + 1 Ant, 1.0 m
Radar Cross Section
0.229 m², Medium (>0.1 m² and < 1m²)

Expand to show TLE details & history
Last TLE update: 22 hours ago

TLE from 22 hours ago
0 KINEIS-2D
1 62930U 25028C   25288.39563707  .00002844  00000-0  43463-3 0  9993
2 62930  97.9643 340.2691 0001803 266.9106  93.1896 14.74559621 36624
Epoch: 2025-10-15T09:29Z
TLE epoch observation values (Epoch: 2025-10-15T09:29:43.042Z)
Latitude
-0.00009°
Longitude
173.66945°
Altitude
649.632 km
Speed
7.533 km/s
True Right ascension
22h 41m 04s
True Declination
0° 00' 00"
Sunlit
Object was in full shadow at epoch
Visualization orbit readout
Latitude
Unknown
Longitude
Unknown
Altitude
Unknown
Speed
Unknown
Apparent Right ascension
Unknown
Apparent Declination
Unknown
Sunlit
N/A
Visualization observer readout
Local Sidereal Time
02:14:59
Azimuth
Unknown
Elevation
Unknown
Doppler factor
Unknown
Orbital elements
Apogee altitude
644.867 km
Perigee altitude
642.335 km
Semi-major axis
7,021.738 km
Eccentricity
0.00018
Inclination
97.9643°
RAAN
340.2691°
Arg. of periapsis
266.9106°
True anomaly
93.21023°
Mean anomaly
93.1896°
Eccentric anomaly
93.19991°
Mean motion
3.68873 °/min
Orbital period
97.59 mins
BSTAR
0.00043463
Loading maneuver chart data...
Computing Atmospheric mass density...
Loading historical data...
Loading historical data...
Loading historical data...
Loading historical data...
Loading historical data...
Loading historical data...
Loading historical data...

Documentation

Showing up to 5 results
|